Location: Lhota
(50.0887°N, 14.0116°E)
Time: 10:25:15
(UTC+00:00)

Meteor 1-18 Rocket - Pass Details

Date: 19 May 2025
Orbit: 836 x 907 km, 81.2° (Epoch: 23 June)

Event Time Altitude Azimuth Distance (km) Brightness Sun altitude
Exits shadow 23:14:40 32° 213° (SSW) 1,468 5.0 -19.9°
Maximum altitude 23:17:22 66° 285° (WNW) 971 4.5 -19.8°
Drops below altitude 10° 23:23:15 10° 8° (N) 2,589 8.0 -19.7°
Sets 23:25:46 0° 11° (NNE) 3,540 9.1 -19.7°
